ASTRA 2B (26494 NORAD) Tracking and Keplerian Element Data

This shows tracking and keplerian element data for the satellite.

Feedback or suggestion? Click here.




ElementValue
Catalog26494
NameASTRA 2B
Epoch Orbit7585
Epoch Day160.73390046
Epoch Year2021
RAAN71.3204
Inclination5.2829
Eccentricity0.0008372
Argument of Perigee64.0567
Mean Anonmoly21.011
Mean Motion0.98749756
Decay Rate-1.9E-06
L11 26494U 00054A 21160.73390046 -.00000190 00000-0 00000+0 0 9996
L22 26494 5.2829 71.3204 0008372 64.0567 21.0110 0.98749756 75853



Live tracking and technical data element details for ASTRA 2B (NORAD 26494). ASTRA 2B can be tracked NOW for your location showing map with azimuth and elevation plus other details from your city location.







IsCatalogInMostPopularTable: catalog: 26494, numindb: 340
Update: records affected: 1



GetName: 26494 ASTRA 2B

Hit Count: updated at: Sat, 24 May 2025 16:55:54 GMT